Location: Fort Wayne
(41.1310°N, 85.1290°W)
Time: 21:42:47
(UTC-04:00)

Meteor 2-9 Rocket - Visible Passes

Search period start: 21 April 2015 00:00
Search period end: 01 May 2015 00:00
Orbit: 791 x 896 km, 81.3° (Epoch: 20 April)

Date Brightness Start Highest point End Pass type
(mag) Time Alt. Az. Time Alt. Az. Time Alt. Az.
21 Apr 6.6 01:04:58 10° NE 01:06:34 13° NE 01:06:34 13° NE visible
21 Apr 5.6 02:45:38 10° NNW 02:48:25 32° NNW 02:48:25 32° NNW visible
22 Apr 6.6 00:51:26 10° NE 00:52:35 12° NE 00:52:35 12° NE visible
22 Apr 5.6 02:31:33 10° N 02:34:26 33° NNW 02:34:26 33° NNW visible
23 Apr 6.7 00:38:19 10° NE 00:38:37 10° NE 00:38:37 10° NE visible
23 Apr 5.5 02:17:29 10° N 02:20:28 34° N 02:20:28 34° N visible
24 Apr 5.5 02:03:26 10° N 02:06:31 35° N 02:06:31 35° N visible
25 Apr 5.5 01:49:23 10° N 01:52:35 36° N 01:52:35 36° N visible
25 Apr 6.5 03:33:56 10° NW 03:34:26 11° NW 03:34:26 11° NW visible
26 Apr 5.5 01:35:22 10° N 01:38:39 36° NNE 01:38:39 36° NNE visible
26 Apr 6.4 03:19:30 10° NW 03:20:31 13° NW 03:20:31 13° NW visible
27 Apr 5.5 01:21:21 10° N 01:24:44 35° NNE 01:24:44 35° NNE visible
27 Apr 6.3 03:05:09 10° NW 03:06:36 15° NW 03:06:36 15° NW visible
28 Apr 5.5 01:07:21 10° N 01:10:50 34° NNE 01:10:50 34° NNE visible
28 Apr 6.2 02:50:51 10° NW 02:52:41 17° NW 02:52:41 17° NW visible
29 Apr 5.5 00:53:22 10° N 00:56:56 32° NE 00:56:56 32° NE visible
29 Apr 6.1 02:36:35 10° NW 02:38:48 20° NW 02:38:48 20° NW visible
30 Apr 5.5 00:39:23 10° N 00:43:03 31° NE 00:43:03 31° NE visible
30 Apr 5.9 02:22:20 10° NNW 02:24:55 23° NW 02:24:55 23° NW visible
